EW6614 Weather Reports


Display with metric or nautical units.
time (UTC)temp
F
wind
direction
speed
MPH
gust
MPH
rain 1hr
in
rain 24hr
in
rain mn
in
humidity
%
barometer
mb
20260510023102 69 360 0.0 4.0 0.00 0.00 0.00 56 1010.7
20260510023032 69 360 0.0 4.0 0.00 0.00 0.00 67 1010.5
20260510021554 70 360 1.0 3.0 0.00 0.00 0.00 56 1010.5
20260510021534 70 360 1.0 3.0 0.00 0.00 0.00 67 1010.3
20260510020056 70 0 1.0 4.0 0.00 0.00 0.00 56 1010.3
20260510020033 70 360 1.0 4.0 0.00 0.00 0.00 67 1010.2
20260510014557 71 360 0.0 7.0 0.00 0.00 0.00 56 1010.1
20260510014538 71 360 0.0 5.0 0.00 0.00 0.00 67 1009.9
20260510013056 71 150 1.0 6.0 0.00 0.00 0.00 56 1009.8
20260510013034 71 150 1.0 5.0 0.00 0.00 0.00 67 1009.5
20260510011559 72 168 2.0 12.0 0.00 0.00 0.00 56 1009.5
20260510011531 72 168 2.0 10.0 0.00 0.00 0.00 67 1009.2
20260510010123 72 153 5.0 12.0 0.00 0.00 0.00 56 1009.3
20260510010029 72 117 6.0 11.0 0.00 0.00 0.00 67 1009.0
20260510004554 73 123 4.0 11.0 0.00 0.00 0.00 56 1009.3
20260510004531 73 146 2.0 10.0 0.00 0.00 0.00 67 1009.0
20260510003058 73 98 5.0 14.0 0.00 0.00 0.00 55 1009.3
20260510003027 73 157 5.0 14.0 0.00 0.00 0.00 67 1009.0
20260510001553 75 133 6.0 15.0 0.00 0.00 0.00 55 1009.2
20260510001527 75 162 7.0 14.0 0.00 0.00 0.00 66 1008.8
20260510000054 76 96 7.0 15.0 0.00 0.00 0.00 53 1009.0
20260510000026 76 122 7.0 15.0 0.00 0.00 0.00 64 1008.7
20260509234618 80 105 9.0 19.0 0.00 0.00 0.00 50 1009.0
20260509234536 80 105 8.0 19.0 0.00 0.00 0.00 61 1008.5
20260509233058 81 126 4.0 11.0 0.00 0.00 0.00 49 1008.5
20260509233023 81 128 3.0 11.0 0.00 0.00 0.00 61 1008.2
20260509231553 82 105 3.0 8.0 0.00 0.00 0.00 49 1008.1
20260509231523 82 110 2.0 8.0 0.00 0.00 0.00 60 1007.9
20260509230023 83 73 3.0 8.0 0.00 0.00 0.00 59 1007.8
20260509224553 84 62 2.0 5.0 0.00 0.00 0.00 48 1007.9
20260509224521 84 62 2.0 5.0 0.00 0.00 0.00 59 1007.7
20260509223056 84 0 0.0 3.0 0.00 0.00 0.00 49 1007.7
20260509223022 84 103 0.0 3.0 0.00 0.00 0.00 60 1007.5
20260509221600 84 0 0.0 4.0 0.00 0.00 0.00 48 1007.4
20260509221520 84 106 1.0 4.0 0.00 0.00 0.00 60 1007.3
20260509220107 83 0 0.0 3.0 0.00 0.00 0.00 49 1007.3
20260509220017 83 110 0.0 0.0 0.00 0.00 0.00 61 1007.1
20260509214553 82 0 0.0 2.0 0.00 0.00 0.00 50 1007.4
20260509214516 82 110 0.0 1.0 0.00 0.00 0.00 61 1007.2
20260509213100 83 110 2.0 6.0 0.00 0.00 0.00 49 1007.4
20260509213014 83 131 2.0 5.0 0.00 0.00 0.00 60 1007.3
20260509211557 83 0 0.0 6.0 0.00 0.00 0.00 50 1007.7
20260509211513 83 355 0.0 4.0 0.00 0.00 0.00 61 1007.6
20260509210057 83 131 2.0 7.0 0.00 0.00 0.00 49 1007.8
20260509210018 83 140 2.0 7.0 0.00 0.00 0.00 61 1007.7
20260509204558 83 78 3.0 8.0 0.00 0.00 0.00 49 1008.0
20260509204510 83 78 3.0 8.0 0.00 0.00 0.00 61 1007.9
20260509203124 83 93 1.0 4.0 0.00 0.00 0.00 49 1008.1
20260509203007 83 90 1.0 4.0 0.00 0.00 0.00 61 1008.0
20260509201604 82 80 1.0 6.0 0.00 0.00 0.00 51 1008.2
20260509201504 82 80 1.0 6.0 0.00 0.00 0.00 62 1008.2
20260509200002 82 124 4.0 10.0 0.00 0.00 0.00 63 1008.4
20260509194601 81 85 2.0 4.0 0.00 0.00 0.00 62 1008.3
20260509194555 81 85 0.0 3.0 0.00 0.00 0.00 51 1008.4
20260509193116 80 0 0.0 6.0 0.00 0.00 0.00 51 1008.7
20260509193114 80 77 0.0 3.0 0.00 0.00 0.00 62 1008.5
20260509191612 80 0 1.0 4.0 0.00 0.00 0.00 51 1008.8
20260509191555 80 199 0.0 4.0 0.00 0.00 0.00 63 1008.7
20260509190056 79 0 1.0 7.0 0.00 0.00 0.00 51 1009.1
20260509190054 79 200 0.0 6.0 0.00 0.00 0.00 63 1008.9
20260509184605 80 161 4.0 8.0 0.00 0.00 0.00 62 1008.9
20260509184559 80 161 3.0 8.0 0.00 0.00 0.00 50 1009.2
20260509183055 78 161 3.0 5.0 0.00 0.00 0.00 49 1009.3
20260509183050 78 161 4.0 5.0 0.00 0.00 0.00 61 1009.1
20260509181559 77 169 2.0 4.0 0.00 0.00 0.00 48 1009.6
20260509181548 77 196 2.0 6.0 0.00 0.00 0.00 60 1009.2
20260509180104 76 329 1.0 3.0 0.00 0.00 0.00 47 1009.9
20260509180044 76 329 1.0 3.0 0.00 0.00 0.00 59 1009.6
20260509174558 75 0 0.0 2.0 0.00 0.00 0.00 49 1009.9
20260509174541 75 165 0.0 2.0 0.00 0.00 0.00 61 1009.8
20260509173101 75 0 0.0 4.0 0.00 0.00 0.00 49 1010.2
20260509173044 75 165 0.0 3.0 0.00 0.00 0.00 61 1010.1
20260509171555 75 0 0.0 4.0 0.00 0.00 0.00 49 1010.2
20260509171544 75 165 0.0 3.0 0.00 0.00 0.00 61 1010.1
20260509170101 75 166 1.0 6.0 0.00 0.00 0.00 50 1010.4
20260509170038 75 166 1.0 6.0 0.00 0.00 0.00 61 1010.3
20260509164607 74 167 0.0 3.0 0.00 0.00 0.00 52 1010.5
20260509164536 74 168 1.0 4.0 0.00 0.00 0.00 63 1010.3
20260509163105 73 0 0.0 3.0 0.00 0.00 0.00 52 1010.5
20260509163031 73 109 1.0 3.0 0.00 0.00 0.00 63 1010.3
20260509161601 73 0 0.0 0.0 0.00 0.00 0.00 52 1010.4
20260509161533 73 110 0.0 0.0 0.00 0.00 0.00 64 1010.3
20260509160057 73 0 0.0 0.0 0.00 0.00 0.00 52 1010.5
20260509160029 73 109 0.0 0.0 0.00 0.00 0.00 64 1010.4
20260509154557 73 0 0.0 0.0 0.00 0.00 0.00 52 1010.3
20260509154531 73 109 0.0 0.0 0.00 0.00 0.00 64 1010.2
20260509153105 73 0 0.0 0.0 0.00 0.00 0.00 53 1010.0
20260509153030 73 109 0.0 0.0 0.00 0.00 0.00 64 1010.0
20260509151607 72 0 0.0 2.0 0.00 0.00 0.00 53 1009.9
20260509151525 72 360 0.0 2.0 0.00 0.00 0.00 64 1009.8
20260509150057 72 0 0.0 3.0 0.00 0.00 0.00 53 1009.7
20260509150023 72 108 0.0 3.0 0.00 0.00 0.00 64 1009.7
20260509144559 71 103 1.0 4.0 0.00 0.00 0.00 52 1009.6
20260509144521 71 103 1.0 4.0 0.00 0.00 0.00 64 1009.6
20260509143056 71 0 2.0 8.0 0.00 0.00 0.00 52 1009.8
20260509143024 71 142 2.0 8.0 0.00 0.00 0.00 64 1009.8
20260509141558 70 0 0.0 0.0 0.00 0.00 0.00 51 1010.2
20260509141524 70 142 0.0 0.0 0.00 0.00 0.00 63 1010.2
20260509140057 70 0 0.0 0.0 0.00 0.00 0.00 51 1010.5
20260509140017 70 144 0.0 0.0 0.00 0.00 0.00 62 1010.4
20260509134558 70 0 0.0 0.0 0.00 0.00 0.00 51 1010.5
20260509134517 70 152 0.0 0.0 0.00 0.00 0.00 62 1010.5
20260509133117 70 173 0.0 0.0 0.00 0.00 0.00 62 1010.3
20260509133055 70 0 0.0 0.0 0.00 0.00 0.00 50 1010.4
20260509131556 70 0 0.0 0.0 0.00 0.00 0.00 50 1010.4
20260509131520 70 174 0.0 0.0 0.00 0.00 0.00 62 1010.4
20260509130015 70 161 0.0 0.0 0.00 0.00 0.00 62 1010.1
20260509124555 70 0 0.0 0.0 0.00 0.00 0.00 50 1010.0
20260509124514 70 161 0.0 0.0 0.00 0.00 0.00 61 1010.0
20260509123058 70 0 0.0 0.0 0.00 0.00 0.00 50 1009.7
20260509123014 70 161 0.0 0.0 0.00 0.00 0.00 61 1009.7
20260509121558 70 0 0.0 0.0 0.00 0.00 0.00 50 1009.6
20260509121522 70 161 0.0 0.0 0.00 0.00 0.00 61 1009.6
20260509120016 70 161 0.0 2.0 0.00 0.00 0.00 61 1009.6
20260509114557 70 0 0.0 5.0 0.00 0.00 0.00 49 1009.5
20260509114512 70 161 0.0 3.0 0.00 0.00 0.00 61 1009.4
20260509113106 70 161 0.0 2.0 0.00 0.00 0.00 49 1009.5
20260509113011 70 161 0.0 2.0 0.00 0.00 0.00 61 1009.4
20260509111604 70 0 0.0 0.0 0.00 0.00 0.00 49 1009.6
20260509111512 70 161 0.0 0.0 0.00 0.00 0.00 61 1009.6
20260509110057 70 0 0.0 0.0 0.00 0.00 0.00 49 1009.8
20260509110012 70 161 0.0 0.0 0.00 0.00 0.00 61 1009.7
20260509104552 70 0 0.0 0.0 0.00 0.00 0.00 49 1009.6
20260509104527 70 161 0.0 0.0 0.00 0.00 0.00 60 1009.6
20260509103055 69 0 0.0 0.0 0.00 0.00 0.00 49 1009.3
20260509103009 69 161 0.0 0.0 0.00 0.00 0.00 60 1009.2
20260509101553 70 0 0.0 0.0 0.00 0.00 0.00 49 1009.4
20260509101509 70 161 0.0 0.0 0.00 0.00 0.00 60 1009.3
20260509100052 70 0 0.0 1.0 0.00 0.00 0.00 49 1009.0
20260509100023 70 161 0.0 1.0 0.00 0.00 0.00 61 1008.7
20260509094554 69 0 0.0 4.0 0.00 0.00 0.00 49 1008.7
20260509094517 70 161 0.0 3.0 0.00 0.00 0.00 60 1008.6
20260509093052 69 161 1.0 2.0 0.00 0.00 0.00 49 1008.9
20260509093006 69 161 1.0 2.0 0.00 0.00 0.00 60 1008.8
20260509091607 69 0 0.0 0.0 0.00 0.00 0.00 49 1009.1
20260509091504 69 161 0.0 0.0 0.00 0.00 0.00 60 1008.9
20260509090055 69 0 0.0 0.0 0.00 0.00 0.00 49 1009.3
20260509090003 69 161 0.0 0.0 0.00 0.00 0.00 60 1009.2
20260509084555 69 0 0.0 0.0 0.00 0.00 0.00 49 1009.3
20260509084502 69 161 0.0 0.0 0.00 0.00 0.00 60 1009.1
20260509083100 69 161 0.0 0.0 0.00 0.00 0.00 60 1009.1
20260509083054 69 0 0.0 0.0 0.00 0.00 0.00 49 1009.3
20260509081600 69 161 0.0 0.0 0.00 0.00 0.00 60 1009.2
20260509081558 69 0 0.0 0.0 0.00 0.00 0.00 49 1009.5
20260509080100 69 161 0.0 0.0 0.00 0.00 0.00 60 1009.6
20260509080059 69 0 0.0 0.0 0.00 0.00 0.00 49 1009.7
20260509074601 69 161 0.0 0.0 0.00 0.00 0.00 60 1009.6
20260509074557 70 0 0.0 0.0 0.00 0.00 0.00 49 1009.6
20260509073058 70 161 0.0 0.0 0.00 0.00 0.00 60 1009.6
20260509073054 70 0 0.0 0.0 0.00 0.00 0.00 49 1009.7
20260509071608 70 161 0.0 0.0 0.00 0.00 0.00 61 1009.7
20260509071559 70 0 0.0 0.0 0.00 0.00 0.00 50 1009.7
20260509070100 70 0 0.0 0.0 0.00 0.00 0.00 50 1010.0
20260509070056 70 161 0.0 0.0 0.00 0.00 0.00 62 1010.0
20260509064604 70 161 0.0 0.0 0.00 0.00 0.00 62 1010.2
20260509064558 70 0 0.0 0.0 0.00 0.00 0.00 50 1010.2
20260509063057 70 0 0.0 0.0 0.00 0.00 0.00 50 1010.2
20260509063052 70 161 0.0 0.0 0.00 0.00 0.00 61 1010.2
20260509061613 70 0 0.0 0.0 0.00 0.00 0.00 50 1010.4
20260509061553 70 161 0.0 0.0 0.00 0.00 0.00 61 1010.4
20260509060124 70 0 0.0 0.0 0.00 0.00 0.00 50 1010.3
20260509060104 70 161 0.0 0.0 0.00 0.00 0.00 61 1010.3
20260509054605 70 161 0.0 1.0 0.00 0.00 0.00 61 1010.3
20260509054554 70 0 0.0 1.0 0.00 0.00 0.00 50 1010.4
20260509053057 70 0 0.0 2.0 0.00 0.00 0.00 50 1010.3
20260509053050 70 161 0.0 2.0 0.00 0.00 0.00 62 1010.3
20260509051648 70 161 0.0 2.0 0.00 0.00 0.00 62 1010.1
20260509051558 70 161 0.0 2.0 0.00 0.00 0.00 50 1010.1
20260509050123 70 0 0.0 5.0 0.00 0.00 0.00 50 1010.1
20260509050055 70 161 0.0 3.0 0.00 0.00 0.00 61 1010.0
20260509044602 69 0 0.0 2.0 0.00 0.00 0.00 50 1009.8
20260509044550 69 161 0.0 1.0 0.00 0.00 0.00 61 1009.8
20260509043053 69 0 1.0 5.0 0.00 0.00 0.00 50 1009.7
20260509043045 69 161 0.0 5.0 0.00 0.00 0.00 62 1009.7
20260509041600 69 150 2.0 5.0 0.00 0.00 0.00 51 1009.7
20260509041544 69 150 2.0 5.0 0.00 0.00 0.00 63 1009.6
20260509040058 70 165 2.0 4.0 0.00 0.00 0.00 52 1009.7
20260509040044 70 165 2.0 4.0 0.00 0.00 0.00 63 1009.6
20260509034637 70 140 0.0 6.0 0.00 0.00 0.00 52 1009.6
20260509034555 70 140 1.0 4.0 0.00 0.00 0.00 63 1009.6
20260509033056 70 171 2.0 7.0 0.00 0.00 0.00 52 1009.5
20260509033042 70 171 2.0 7.0 0.00 0.00 0.00 63 1009.4
20260509031559 70 171 2.0 8.0 0.00 0.00 0.00 52 1009.5
20260509031550 70 171 2.0 7.0 0.00 0.00 0.00 63 1009.6
20260509030057 70 155 2.0 9.0 0.00 0.00 0.00 52 1009.4
20260509030042 70 153 1.0 8.0 0.00 0.00 0.00 64 1009.3
20260509024555 70 167 3.0 6.0 0.00 0.00 0.00 53 1009.3
20260509024541 70 167 3.0 6.0 0.00 0.00 0.00 64 1009.1